Time,TemperatureF,DewpointF,PressureIn,WindDirection,WindDirectionDegrees,WindSpeedMPH,WindSpeedGustMPH,Humidity,HourlyPrecipIn,Conditions,Clouds,dailyrainin,SoftwareType,DateUTC
2013-03-11 00:02:00,52.0,32.0,30.00,WNW,294,1.0,3.0,47,0.00,,,0.00,,2013-03-11 04:02:00,
2013-03-11 00:12:00,52.0,32.0,30.00,WNW,294,1.0,3.0,47,0.00,,,0.00,,2013-03-11 04:12:00,
2013-03-11 00:22:00,51.0,32.0,30.00,WNW,282,2.0,4.0,48,0.00,,,0.00,,2013-03-11 04:22:00,
2013-03-11 00:32:00,51.0,33.0,30.00,WNW,284,2.0,9.0,49,0.00,,,0.00,,2013-03-11 04:32:00,
2013-03-11 00:43:00,51.0,33.0,30.00,WNW,284,2.0,9.0,49,0.00,,,0.00,,2013-03-11 04:43:00,
2013-03-11 00:53:00,51.0,33.0,29.99,WNW,284,1.0,4.0,49,0.00,,,0.00,,2013-03-11 04:53:00,
2013-03-11 01:03:00,51.0,32.0,29.99,WNW,290,1.0,4.0,48,0.00,,,0.00,,2013-03-11 05:03:00,
2013-03-11 01:12:00,51.0,32.0,29.99,WNW,290,1.0,4.0,48,0.00,,,0.00,,2013-03-11 05:12:00,
2013-03-11 01:22:00,51.0,32.0,29.98,West,275,2.0,6.0,48,0.00,,,0.00,,2013-03-11 05:22:00,
2013-03-11 01:32:00,51.0,32.0,29.98,WNW,298,2.0,4.0,48,0.00,,,0.00,,2013-03-11 05:32:00,
2013-03-11 01:43:00,51.0,32.0,29.98,WNW,298,2.0,4.0,48,0.00,,,0.00,,2013-03-11 05:43:00,
2013-03-11 01:52:00,51.0,33.0,29.98,West,275,3.0,5.0,49,0.00,,,0.00,,2013-03-11 05:52:00,
2013-03-11 02:02:00,51.0,33.0,29.97,NW,306,4.0,9.0,49,0.00,,,0.00,,2013-03-11 06:02:00,
2013-03-11 02:12:00,51.0,33.0,29.97,NW,306,4.0,9.0,49,0.00,,,0.00,,2013-03-11 06:12:00,
2013-03-11 02:22:00,51.0,31.0,29.96,West,276,6.0,11.0,47,0.00,,,0.00,,2013-03-11 06:22:00,
2013-03-11 02:32:00,52.0,32.0,29.97,WNW,289,4.0,11.0,47,0.00,,,0.00,,2013-03-11 06:32:00,
2013-03-11 02:42:00,52.0,32.0,29.97,WNW,289,4.0,11.0,47,0.00,,,0.00,,2013-03-11 06:42:00,
2013-03-11 02:53:00,52.0,32.0,29.97,WNW,283,3.0,8.0,47,0.00,,,0.00,,2013-03-11 06:53:00,
2013-03-11 03:03:00,52.0,32.0,29.98,West,277,3.0,6.0,47,0.00,,,0.00,,2013-03-11 07:03:00,
2013-03-11 03:12:00,52.0,32.0,29.98,West,277,3.0,6.0,47,0.00,,,0.00,,2013-03-11 07:12:00,
2013-03-11 03:22:00,51.0,31.0,29.97,NW,306,2.0,10.0,47,0.00,,,0.00,,2013-03-11 07:22:00,
2013-03-11 03:32:00,51.0,31.0,29.96,West,280,3.0,7.0,47,0.00,,,0.00,,2013-03-11 07:32:00,
2013-03-11 03:42:00,51.0,31.0,29.96,West,280,3.0,7.0,47,0.00,,,0.00,,2013-03-11 07:42:00,
2013-03-11 03:52:00,51.0,32.0,29.95,West,281,4.0,7.0,48,0.00,,,0.00,,2013-03-11 07:52:00,
2013-03-11 04:02:00,51.0,31.0,29.95,West,270,4.0,9.0,47,0.00,,,0.00,,2013-03-11 08:02:00,
2013-03-11 04:12:00,51.0,31.0,29.95,West,270,4.0,9.0,47,0.00,,,0.00,,2013-03-11 08:12:00,
2013-03-11 04:22:00,51.0,32.0,29.95,WNW,283,3.0,6.0,48,0.00,,,0.00,,2013-03-11 08:22:00,
2013-03-11 04:32:00,51.0,32.0,29.94,WNW,298,2.0,6.0,48,0.00,,,0.00,,2013-03-11 08:32:00,
2013-03-11 04:42:00,51.0,32.0,29.94,WNW,298,2.0,6.0,48,0.00,,,0.00,,2013-03-11 08:42:00,
2013-03-11 04:52:00,51.0,31.0,29.93,WNW,290,4.0,9.0,47,0.00,,,0.00,,2013-03-11 08:52:00,
2013-03-11 05:02:00,51.0,31.0,29.92,WNW,285,4.0,13.0,47,0.00,,,0.00,,2013-03-11 09:02:00,
2013-03-11 05:12:00,51.0,31.0,29.92,WNW,285,4.0,13.0,47,0.00,,,0.00,,2013-03-11 09:12:00,
2013-03-11 05:23:00,51.0,32.0,29.92,WNW,291,2.0,4.0,48,0.00,,,0.00,,2013-03-11 09:23:00,
2013-03-11 05:32:00,51.0,32.0,29.92,West,281,4.0,9.0,48,0.00,,,0.00,,2013-03-11 09:32:00,
2013-03-11 05:42:00,51.0,32.0,29.92,West,281,4.0,9.0,48,0.00,,,0.00,,2013-03-11 09:42:00,
2013-03-11 05:52:00,51.0,32.0,29.92,West,280,5.0,7.0,48,0.00,,,0.00,,2013-03-11 09:52:00,
2013-03-11 06:02:00,51.0,31.0,29.91,WNW,282,5.0,12.0,47,0.00,,,0.00,,2013-03-11 10:02:00,
2013-03-11 06:12:00,51.0,31.0,29.91,WNW,282,5.0,12.0,47,0.00,,,0.00,,2013-03-11 10:12:00,
2013-03-11 06:22:00,50.0,31.0,29.92,West,261,5.0,9.0,48,0.00,,,0.00,,2013-03-11 10:22:00,
2013-03-11 06:32:00,50.0,31.0,29.92,West,273,5.0,9.0,48,0.00,,,0.00,,2013-03-11 10:32:00,
2013-03-11 06:42:00,50.0,31.0,29.92,West,273,5.0,9.0,48,0.00,,,0.00,,2013-03-11 10:42:00,
2013-03-11 06:52:00,50.0,31.0,29.92,West,278,3.0,8.0,48,0.00,,,0.00,,2013-03-11 10:52:00,
2013-03-11 07:02:00,49.0,30.0,29.92,West,261,3.0,9.0,48,0.00,,,0.00,,2013-03-11 11:02:00,
2013-03-11 07:12:00,49.0,30.0,29.92,West,261,3.0,9.0,48,0.00,,,0.00,,2013-03-11 11:12:00,
2013-03-11 07:22:00,50.0,32.0,29.92,WNW,295,3.0,7.0,49,0.00,,,0.00,,2013-03-11 11:22:00,
2013-03-11 07:33:00,49.0,31.0,29.93,WNW,300,2.0,7.0,49,0.00,,,0.00,,2013-03-11 11:33:00,
2013-03-11 07:42:00,49.0,31.0,29.93,WNW,300,2.0,7.0,49,0.00,,,0.00,,2013-03-11 11:42:00,
2013-03-11 07:53:00,50.0,31.0,29.93,West,281,2.0,4.0,48,0.00,,,0.00,,2013-03-11 11:53:00,
2013-03-11 08:02:00,50.0,32.0,29.94,WNW,283,1.0,4.0,50,0.00,,,0.00,,2013-03-11 12:02:00,
2013-03-11 08:12:00,50.0,32.0,29.94,WNW,283,1.0,4.0,50,0.00,,,0.00,,2013-03-11 12:12:00,
2013-03-11 08:22:00,49.0,32.0,29.94,WNW,292,1.0,4.0,51,0.00,,,0.00,,2013-03-11 12:22:00,
2013-03-11 08:32:00,49.0,32.0,29.94,WNW,292,1.0,4.0,52,0.00,,,0.00,,2013-03-11 12:32:00,
2013-03-11 08:43:00,49.0,32.0,29.94,WNW,292,1.0,4.0,52,0.00,,,0.00,,2013-03-11 12:43:00,
2013-03-11 08:53:00,49.0,33.0,29.95,WNW,284,2.0,6.0,53,0.00,,,0.00,,2013-03-11 12:53:00,
2013-03-11 09:02:00,49.0,32.0,29.95,West,281,2.0,5.0,52,0.00,,,0.00,,2013-03-11 13:02:00,
2013-03-11 09:12:00,49.0,32.0,29.95,West,281,2.0,5.0,52,0.00,,,0.00,,2013-03-11 13:12:00,
2013-03-11 09:22:00,49.0,32.0,29.93,West,281,3.0,9.0,52,0.00,,,0.00,,2013-03-11 13:22:00,
2013-03-11 09:32:00,49.0,32.0,29.93,West,267,2.0,9.0,51,0.00,,,0.00,,2013-03-11 13:32:00,
2013-03-11 09:42:00,49.0,32.0,29.93,West,267,2.0,9.0,51,0.00,,,0.00,,2013-03-11 13:42:00,
2013-03-11 09:53:00,50.0,33.0,29.95,NW,319,4.0,12.0,51,0.00,,,0.00,,2013-03-11 13:53:00,
2013-03-11 10:02:00,49.0,32.0,29.94,West,259,4.0,9.0,51,0.00,,,0.00,,2013-03-11 14:02:00,
2013-03-11 10:12:00,49.0,32.0,29.94,West,259,4.0,9.0,51,0.00,,,0.00,,2013-03-11 14:12:00,
2013-03-11 10:22:00,49.0,32.0,29.95,WNW,292,3.0,9.0,51,0.00,,,0.00,,2013-03-11 14:22:00,
2013-03-11 10:33:00,50.0,33.0,29.94,WNW,300,3.0,7.0,51,0.00,,,0.00,,2013-03-11 14:33:00,
2013-03-11 10:42:00,50.0,33.0,29.94,WNW,300,3.0,7.0,51,0.00,,,0.00,,2013-03-11 14:42:00,
2013-03-11 10:53:00,50.0,32.0,29.93,WNW,286,2.0,11.0,50,0.00,,,0.00,,2013-03-11 14:53:00,
2013-03-11 11:03:00,51.0,32.0,29.93,West,261,4.0,7.0,48,0.00,,,0.00,,2013-03-11 15:03:00,
2013-03-11 11:13:00,51.0,32.0,29.93,West,261,4.0,7.0,48,0.00,,,0.00,,2013-03-11 15:13:00,
2013-03-11 11:22:00,51.0,31.0,29.93,West,279,4.0,11.0,47,0.00,,,0.00,,2013-03-11 15:22:00,
2013-03-11 11:32:00,51.0,32.0,29.94,West,264,4.0,10.0,48,0.00,,,0.00,,2013-03-11 15:32:00,
2013-03-11 11:42:00,51.0,32.0,29.94,West,264,4.0,10.0,48,0.00,,,0.00,,2013-03-11 15:42:00,
2013-03-11 11:53:00,51.0,33.0,29.94,West,280,3.0,10.0,49,0.00,,,0.00,,2013-03-11 15:53:00,
2013-03-11 12:02:00,51.0,33.0,29.94,NW,311,3.0,10.0,49,0.00,,,0.00,,2013-03-11 16:02:00,
2013-03-11 12:13:00,51.0,33.0,29.94,NW,311,3.0,10.0,49,0.00,,,0.00,,2013-03-11 16:13:00,
2013-03-11 12:22:00,51.0,33.0,29.93,WNW,288,4.0,10.0,49,0.00,,,0.00,,2013-03-11 16:22:00,
2013-03-11 12:32:00,51.0,33.0,29.94,West,277,4.0,10.0,50,0.00,,,0.00,,2013-03-11 16:32:00,
2013-03-11 12:43:00,51.0,33.0,29.94,West,277,4.0,10.0,50,0.00,,,0.00,,2013-03-11 16:43:00,
2013-03-11 12:52:00,51.0,34.0,29.92,WSW,256,4.0,10.0,51,0.00,,,0.00,,2013-03-11 16:52:00,
2013-03-11 13:02:00,51.0,34.0,29.91,West,264,3.0,11.0,51,0.00,,,0.00,,2013-03-11 17:02:00,
2013-03-11 13:15:00,51.0,34.0,29.91,West,264,3.0,11.0,51,0.00,,,0.00,,2013-03-11 17:15:00,
2013-03-11 13:27:00,52.0,34.0,29.90,West,279,7.0,12.0,50,0.00,,,0.00,,2013-03-11 17:27:00,
2013-03-11 13:36:00,52.0,33.0,29.89,West,281,7.0,15.0,49,0.00,,,0.00,,2013-03-11 17:36:00,
2013-03-11 13:42:00,52.0,33.0,29.89,West,281,7.0,15.0,49,0.00,,,0.00,,2013-03-11 17:42:00,
2013-03-11 13:53:00,52.0,33.0,29.87,WNW,295,5.0,15.0,49,0.00,,,0.00,,2013-03-11 17:53:00,
2013-03-11 14:02:00,52.0,34.0,29.86,West,274,8.0,16.0,50,0.00,,,0.00,,2013-03-11 18:02:00,
2013-03-11 14:12:00,52.0,34.0,29.86,West,274,8.0,16.0,50,0.00,,,0.00,,2013-03-11 18:12:00,
2013-03-11 14:23:00,52.0,35.0,29.85,WNW,290,9.0,12.0,52,0.00,,,0.00,,2013-03-11 18:23:00,
2013-03-11 14:32:00,52.0,35.0,29.85,West,269,6.0,17.0,53,0.00,,,0.00,,2013-03-11 18:32:00,
2013-03-11 14:42:00,52.0,35.0,29.85,West,269,6.0,17.0,53,0.00,,,0.00,,2013-03-11 18:42:00,
2013-03-11 14:53:00,52.0,35.0,29.85,WNW,292,8.0,18.0,53,0.00,,,0.00,,2013-03-11 18:53:00,
2013-03-11 15:02:00,52.0,36.0,29.84,West,273,10.0,18.0,54,0.00,,,0.00,,2013-03-11 19:02:00,
2013-03-11 15:12:00,52.0,36.0,29.84,West,273,10.0,18.0,54,0.00,,,0.00,,2013-03-11 19:12:00,
2013-03-11 15:23:00,53.0,37.0,29.82,WSW,250,8.0,15.0,54,0.00,,,0.00,,2013-03-11 19:23:00,
2013-03-11 15:33:00,53.0,36.0,29.82,West,269,10.0,16.0,53,0.00,,,0.00,,2013-03-11 19:33:00,
2013-03-11 15:42:00,53.0,36.0,29.82,West,269,10.0,16.0,53,0.00,,,0.00,,2013-03-11 19:42:00,
2013-03-11 15:53:00,53.0,36.0,29.80,West,279,7.0,16.0,53,0.00,,,0.00,,2013-03-11 19:53:00,
2013-03-11 16:02:00,53.0,37.0,29.80,West,267,4.0,13.0,54,0.00,,,0.00,,2013-03-11 20:02:00,
2013-03-11 16:12:00,53.0,37.0,29.80,West,267,4.0,13.0,54,0.00,,,0.00,,2013-03-11 20:12:00,
2013-03-11 16:22:00,53.0,37.0,29.79,WNW,292,8.0,14.0,54,0.00,,,0.00,,2013-03-11 20:22:00,
2013-03-11 16:32:00,53.0,37.0,29.78,NW,315,10.0,18.0,54,0.00,,,0.00,,2013-03-11 20:32:00,
2013-03-11 16:43:00,53.0,37.0,29.78,NW,315,10.0,18.0,54,0.00,,,0.00,,2013-03-11 20:43:00,
2013-03-11 16:53:00,53.0,37.0,29.78,West,261,5.0,18.0,54,0.00,,,0.00,,2013-03-11 20:53:00,
2013-03-11 17:03:00,53.0,37.0,29.78,West,277,4.0,16.0,54,0.00,,,0.00,,2013-03-11 21:03:00,
2013-03-11 17:13:00,53.0,37.0,29.78,West,277,4.0,16.0,54,0.00,,,0.00,,2013-03-11 21:13:00,
2013-03-11 17:22:00,54.0,38.0,29.78,West,269,4.0,12.0,54,0.00,,,0.00,,2013-03-11 21:22:00,
2013-03-11 17:32:00,54.0,38.0,29.77,West,262,5.0,11.0,54,0.00,,,0.00,,2013-03-11 21:32:00,
2013-03-11 17:44:00,54.0,38.0,29.77,West,262,5.0,11.0,54,0.00,,,0.00,,2013-03-11 21:44:00,
2013-03-11 17:53:00,54.0,37.0,29.78,NW,307,3.0,12.0,53,0.00,,,0.00,,2013-03-11 21:53:00,
2013-03-11 18:03:00,54.0,37.0,29.77,WNW,303,1.0,11.0,53,0.00,,,0.00,,2013-03-11 22:03:00,
2013-03-11 18:12:00,54.0,37.0,29.77,WNW,303,1.0,11.0,53,0.00,,,0.00,,2013-03-11 22:12:00,
2013-03-11 18:22:00,54.0,37.0,29.75,WNW,284,5.0,9.0,53,0.00,,,0.00,,2013-03-11 22:22:00,
2013-03-11 18:32:00,53.0,36.0,29.74,WNW,290,4.0,17.0,53,0.00,,,0.00,,2013-03-11 22:32:00,
2013-03-11 18:43:00,53.0,36.0,29.74,WNW,290,4.0,17.0,53,0.00,,,0.00,,2013-03-11 22:43:00,
2013-03-11 18:53:00,53.0,36.0,29.74,WNW,291,5.0,15.0,52,0.00,,,0.00,,2013-03-11 22:53:00,
2013-03-11 19:03:00,53.0,36.0,29.74,West,273,5.0,13.0,52,0.00,,,0.00,,2013-03-11 23:03:00,
2013-03-11 19:12:00,53.0,36.0,29.74,West,273,5.0,13.0,52,0.00,,,0.00,,2013-03-11 23:12:00,
2013-03-11 19:22:00,53.0,35.0,29.73,NNE,13,10.0,23.0,50,0.00,,,0.00,,2013-03-11 23:22:00,
2013-03-11 19:32:00,53.0,35.0,29.72,NNW,327,10.0,17.0,51,0.00,,,0.00,,2013-03-11 23:32:00,
2013-03-11 19:43:00,53.0,35.0,29.72,NNW,327,10.0,17.0,51,0.00,,,0.00,,2013-03-11 23:43:00,
2013-03-11 19:54:00,53.0,35.0,29.70,WNW,287,13.0,28.0,51,0.00,,,0.00,,2013-03-11 23:54:00,
2013-03-11 20:02:00,53.0,35.0,29.70,WSW,252,8.0,20.0,51,0.00,,,0.00,,2013-03-12 00:02:00,
2013-03-11 20:12:00,53.0,35.0,29.70,WSW,252,8.0,20.0,51,0.00,,,0.00,,2013-03-12 00:12:00,
2013-03-11 20:23:00,53.0,35.0,29.70,WSW,246,9.0,19.0,51,0.00,,,0.00,,2013-03-12 00:23:00,
2013-03-11 20:33:00,53.0,36.0,29.70,NNW,330,11.0,25.0,52,0.00,,,0.00,,2013-03-12 00:33:00,
2013-03-11 20:42:00,53.0,36.0,29.70,NNW,330,11.0,25.0,52,0.00,,,0.00,,2013-03-12 00:42:00,
2013-03-11 20:54:00,53.0,36.0,29.71,WSW,249,8.0,18.0,53,0.00,,,0.00,,2013-03-12 00:54:00,
2013-03-11 21:02:00,53.0,36.0,29.73,NNW,347,8.0,18.0,53,0.00,,,0.00,,2013-03-12 01:02:00,
2013-03-11 21:12:00,53.0,36.0,29.73,NNW,347,8.0,18.0,53,0.00,,,0.00,,2013-03-12 01:12:00,
2013-03-11 21:22:00,53.0,37.0,29.72,NNW,336,6.0,18.0,54,0.00,,,0.00,,2013-03-12 01:22:00,
2013-03-11 21:33:00,53.0,38.0,29.71,WNW,299,5.0,22.0,56,0.00,,,0.00,,2013-03-12 01:33:00,
2013-03-11 21:42:00,53.0,38.0,29.71,WNW,299,5.0,22.0,56,0.00,,,0.00,,2013-03-12 01:42:00,
2013-03-11 21:53:00,53.0,38.0,29.69,West,272,6.0,14.0,57,0.00,,,0.00,,2013-03-12 01:53:00,
2013-03-11 22:02:00,53.0,39.0,29.71,WNW,291,3.0,19.0,58,0.00,,,0.00,,2013-03-12 02:02:00,
2013-03-11 22:12:00,53.0,39.0,29.71,WNW,291,3.0,19.0,58,0.00,,,0.00,,2013-03-12 02:12:00,
2013-03-11 22:22:00,53.0,40.0,29.70,East,90,4.0,23.0,61,0.00,,,0.00,,2013-03-12 02:22:00,
2013-03-11 22:32:00,54.0,41.0,29.71,WSW,247,6.0,15.0,62,0.00,,,0.00,,2013-03-12 02:32:00,
2013-03-11 22:42:00,54.0,41.0,29.71,WSW,247,6.0,15.0,62,0.00,,,0.00,,2013-03-12 02:42:00,
2013-03-11 22:52:00,54.0,43.0,29.69,West,273,9.0,18.0,65,0.00,,,0.00,,2013-03-12 02:52:00,
2013-03-11 23:02:00,54.0,43.0,29.70,ESE,121,7.0,21.0,66,0.00,,,0.00,,2013-03-12 03:02:00,
2013-03-11 23:12:00,54.0,43.0,29.70,ESE,121,7.0,21.0,66,0.00,,,0.00,,2013-03-12 03:12:00,
2013-03-11 23:22:00,54.0,43.0,29.70,NNW,339,5.0,18.0,67,0.00,,,0.00,,2013-03-12 03:22:00,
2013-03-11 23:32:00,54.0,44.0,29.70,West,277,7.0,18.0,68,0.00,,,0.00,,2013-03-12 03:32:00,
2013-03-11 23:42:00,54.0,44.0,29.70,West,277,7.0,18.0,68,0.00,,,0.00,,2013-03-12 03:42:00,
2013-03-11 23:53:00,54.0,44.0,29.69,West,276,6.0,15.0,70,0.00,,,0.00,,2013-03-12 03:53:00,